PulseSat

PulseSat

UNKNOWN

Last updated on April 18, 2016, 5:36 p.m. UTC

1 15494U 85009A   16108.85405157  .00002575  00000-0  11430-3 0  9997
2 15494  82.4790 314.7892 0003989  95.7015  33.2680 15.21123415703798
UTC
Height (km)
Latitude
Longitude
Inclination
Orbital Period

Next 30 passes for location: Hong Kong

Rise time Rise Azimuth (degrees) Set time Set Azimuth (degrees) Duration Max altitude (degrees)

No matching passes for this satellites

PulseSat

PulseSat is the new satellites software and hardware trackering solution by Pulsely.
Satellite Two Line Element Set source: US Air Force Space Command

© 2016 Pulsely Limited